#timestamp,LO_Frequency,Hit,StdDev 
1594378815.7,286046998.5,P
1594378835.6,286047000.5,N
1594378855.4,286047000.5,N
1594378875.3,286046999.8,N
1594378895.1,286047002.6,Y
1594378896.0,286047002.6,P
1594378915.8,286047001.4,N
1594378935.7,286047006.0,P
1594378955.5,286047005.5,N
1594378975.4,286047005.2,N
1594378995.2,286047005.3,N
1594379015.0,286047005.3,N
1594379015.9,286047005.3,N
1594379035.8,286047004.7,N
1594379055.6,286047005.0,N
1594379075.5,286047005.2,N
1594379095.3,286047005.4,N
1594379115.1,286047005.8,Y
1594379135.9,286047002.8,P
1594379155.7,286046998.2,N
1594379175.6,286046998.3,N
1594379195.4,286047001.1,N
1594379215.2,286047000.5,N
1594379235.1,286046998.2,N
1594379236.0,286046998.2,N
1594379255.8,286046998.3,N
1594379275.6,286046998.3,N
1594379295.5,286047001.2,N
1594379315.3,286047000.3,N
1594379335.2,286047000.0,N
1594379355.9,286047000.3,N
1594379375.7,286047001.8,N
1594379395.6,286047001.9,N
1594379415.4,286047002.0,N
1594379435.3,286047002.3,N
1594379455.1,286047001.8,N
1594379456.0,286047001.8,N
1594379475.8,286047005.9,Y
1594379495.7,286047005.9,P
1594379515.5,286047005.1,N
1594379535.4,286047005.6,N
1594379555.2,286047003.3,N
1594379575.0,286047005.1,N
1594379575.9,286047005.1,N
1594379595.8,286047007.5,Y
1594379615.6,286047000.2,P
1594379635.5,286047000.2,N
1594379655.3,286047002.7,N
1594379675.1,286046999.7,N
1594379695.9,286047002.2,N
1594379715.7,286047001.4,N
1594379735.6,286047000.1,N
1594379755.4,286047000.2,N
1594379775.2,286047002.4,N
1594379795.1,286047001.1,N
1594379796.0,286047001.1,N
1594379815.8,286047002.0,N
1594379835.7,286047000.2,N
1594379855.5,286047002.6,N
1594379875.3,286047002.3,N
1594379895.2,286047000.9,N
1594379915.0,286046998.6,N
1594379915.9,286046998.6,N
1594379935.7,286047001.1,N
1594379955.6,286046998.2,N
1594379975.4,286046999.8,N
1594379995.3,286047000.5,N
1594380015.1,286047002.0,N
1594380016.0,286047002.0,N
1594380035.8,286047000.8,N
1594380055.7,286047002.8,N
1594380075.5,286047000.7,N
1594380095.4,286046998.4,N
1594380115.2,286047000.8,N
1594380135.0,286046998.5,N
1594380135.9,286046998.5,N
1594380155.8,286046998.7,N
1594380175.6,286047002.0,N
1594380195.4,286047002.6,N
1594380215.3,286047000.4,N
1594380235.1,286046998.3,N
1594380255.9,286046998.2,N
1594380275.7,286047001.0,N
1594380295.5,286047000.1,N
1594380315.4,286047000.4,N
1594380335.2,286047002.6,N
1594380355.1,286047002.5,N
1594380356.0,286047002.5,N
1594380375.8,286047002.7,N
1594380395.7,286047001.3,N
1594380415.5,286046999.7,N
1594380435.3,286047002.6,N
1594380455.2,286047000.2,N
1594380475.0,286047002.7,N
1594380475.9,286047002.7,N
1594380495.8,286046999.9,N
1594380515.6,286047000.7,N
1594380535.4,286046999.1,N
1594380555.3,286046999.1,N
1594380575.1,286046997.1,N
1594380595.8,286046997.4,N
1594380615.7,286046996.5,N
1594380635.5,286046999.5,N
1594380655.4,286046997.0,N
1594380675.2,286046999.1,N
1594380695.0,286046998.6,N
1594380695.9,286046998.6,N
1594380715.8,286046998.8,N
1594380735.6,286046998.6,N
1594380755.5,286046998.2,N
1594380775.3,286046999.1,N
1594380795.1,286046997.9,N
1594380815.9,286046995.8,N
1594380835.7,286046995.4,N
1594380855.6,286046995.6,N
1594380875.4,286046996.0,N
1594380895.2,286046996.4,N
1594380915.1,286046994.0,N
1594380916.0,286046994.0,N
1594380935.8,286046994.8,N
1594380955.7,286046991.7,Y
1594380975.5,286046991.7,P
1594380995.3,286046994.1,N
1594381015.2,286046995.5,N
1594381035.0,286046996.7,N
1594381036.0,286046996.7,N
1594381055.8,286046997.5,N
1594381075.6,286046997.4,N
1594381095.5,286046999.6,N
1594381115.3,286046998.4,N
1594381135.1,286046997.3,N
1594381155.9,286046996.6,N
1594381175.7,286046999.3,N
1594381195.6,286046999.5,N
1594381215.4,286046996.5,N
1594381235.2,286046998.0,N
1594381255.1,286046996.4,N
1594381256.0,286046996.4,N
1594381275.8,286046993.9,Y
1594381295.7,286046999.0,P
1594381315.5,286046996.5,P
1594381335.4,286046997.8,N
1594381355.2,286046996.1,Y
1594381375.0,286046997.0,P
1594381375.9,286046997.0,P
1594381395.8,286046999.0,P
1594381415.6,286047001.0,N
1594381435.4,286047000.8,N
1594381455.3,286047000.3,N
1594381475.1,286046998.5,N
1594381495.9,286047000.5,N
1594381515.7,286046999.8,N
1594381535.5,286047002.0,N
1594381555.4,286047002.3,N
1594381575.2,286047002.2,N
1594381595.1,286047000.6,N
1594381596.0,286047000.6,N
1594381615.8,286047001.0,N
1594381635.6,286046999.9,N
1594381655.5,286047002.7,N
1594381675.3,286047002.0,N
1594381695.2,286047000.2,N
1594381715.9,286046999.0,N
1594381735.7,286046999.4,N
1594381755.6,286046999.1,N
1594381775.4,286047000.7,N
1594381795.2,286047000.6,N
1594381815.1,286047002.3,N
1594381816.0,286047002.3,N
1594381835.8,286047001.8,N
1594381855.7,286047002.0,N
1594381875.5,286047000.6,N
1594381895.3,286047001.2,N
1594381915.2,286047002.4,N
1594381935.0,286047001.3,N
1594381935.9,286047001.3,N
1594381955.8,286047001.5,N
1594381975.6,286047000.2,N
1594381995.4,286047002.8,N
1594382015.3,286047002.3,N
1594382035.1,286047002.6,N
1594382055.9,286047002.1,N
1594382075.7,286047002.6,N
1594382095.5,286047002.1,N
1594382115.4,286047000.2,N
1594382135.2,286047002.5,N
1594382155.0,286047002.3,N
1594382155.9,286047002.3,N
1594382175.8,286047002.1,N
1594382195.6,286047002.4,N
1594382215.5,286046999.8,N
1594382235.3,286047002.3,N
1594382255.1,286047002.3,N
1594382275.9,286047001.2,N
1594382295.7,286046999.5,N
1594382315.6,286046997.2,Y
1594382335.4,286046997.5,P
1594382355.2,286046997.3,N
1594382375.1,286046997.9,N
1594382376.0,286046997.9,N
1594382395.8,286046999.1,N
